#timestamp,LO_Frequency,Hit,StdDev 
1626199215.9,286046998.6,N
1626199235.7,286046997.0,N
1626199255.6,286046997.3,N
1626199275.4,286046995.0,Y
1626199295.2,286046995.1,P
1626199315.1,286046993.8,N
1626199316.0,286046993.8,N
1626199335.8,286046993.7,N
1626199355.7,286046995.2,N
1626199375.5,286046998.0,N
1626199395.3,286046996.9,N
1626199415.2,286046997.3,N
1626199435.0,286046997.9,N
1626199435.9,286046997.9,N
1626199455.7,286046995.3,N
1626199475.6,286046997.5,N
1626199495.4,286046996.0,N
1626199515.3,286046996.4,N
1626199535.1,286046995.3,N
1626199536.0,286046995.3,N
1626199555.8,286046995.8,N
1626199575.7,286046995.9,N
1626199595.5,286046995.6,N
1626199615.3,286046995.6,N
1626199635.2,286046995.6,N
1626199655.0,286046995.4,Y
1626199655.9,286046995.4,P
1626199675.8,286046998.3,P
1626199695.6,286047000.8,N
1626199715.4,286047001.1,N
1626199735.3,286047002.6,N
1626199755.1,286047002.1,N
1626199775.8,286047000.1,N
1626199795.7,286047001.0,N
1626199815.5,286047002.7,N
1626199835.4,286047000.3,N
1626199855.2,286046999.8,N
1626199875.0,286047002.4,N
1626199875.9,286047002.4,N
1626199895.8,286046999.7,N
1626199915.6,286047001.0,N
1626199935.4,286047001.2,N
1626199955.3,286047001.1,N
1626199975.1,286047000.9,N
1626199995.9,286047000.2,N
1626200015.7,286047002.6,N
1626200035.5,286047002.0,N
1626200055.4,286047001.4,N
1626200075.2,286047000.4,N
1626200095.0,286047001.0,N
1626200096.0,286047001.0,N
1626200115.8,286046998.5,N
1626200135.6,286046998.1,N
1626200185.5,286047002.8,E
1626200195.4,286046998.5,N
1626200215.3,286046998.8,P
1626200235.1,286047001.0,P
1626200236.0,286047001.0,N
1626200255.8,286046999.1,N
1626200275.7,286046997.0,N
1626200295.5,286046997.3,N
1626200315.3,286046997.6,N
1626200335.2,286046995.3,Y
1626200355.0,286046997.4,P
1626200355.9,286046997.4,P
1626200375.8,286046997.1,P
1626200395.6,286046998.0,Y
1626200415.4,286046996.5,P
1626200435.3,286046997.1,P
1626200455.1,286046996.8,P
1626200475.9,286046998.2,Y
1626200495.7,286047001.7,P
1626200515.5,286047003.9,N
1626200535.4,286047003.6,N
1626200555.2,286047005.3,N
1626200575.0,286047003.1,N
1626200575.9,286047003.1,N
1626200595.8,286047004.0,N
1626200615.6,286047001.5,N
1626200635.5,286047002.3,N
1626200655.3,286047002.8,N
1626200675.1,286046999.9,N
1626200695.9,286047000.1,N
1626200715.7,286047002.0,N
1626200735.5,286047002.8,N
1626200755.4,286046999.9,N
1626200775.2,286047000.5,N
1626200795.1,286047001.1,N
1626200796.0,286047001.1,N
1626200815.8,286047001.1,N
1626200835.6,286046998.5,N
1626200855.5,286046998.6,N
1626200875.3,286046998.2,N
1626200895.1,286046999.3,N
1626200915.9,286046998.8,N
1626200935.7,286047001.0,N
1626200955.6,286046998.7,N
1626200975.4,286046999.5,N
1626200995.2,286046996.9,N
1626201015.1,286046999.3,N
1626201016.0,286046999.3,N
1626201035.8,286046998.6,N
1626201055.6,286047001.0,N
1626201075.5,286046998.2,N
1626201095.3,286046998.1,N
1626201115.1,286046998.8,N
1626201135.9,286046999.6,N
1626201155.7,286046999.0,N
1626201175.6,286046997.1,N
1626201195.4,286046996.5,N
1626201215.2,286046998.7,N
1626201235.1,286047001.0,N
1626201236.0,286047001.0,N
1626201255.8,286047000.3,N
1626201275.6,286047002.5,N
1626201295.5,286047002.7,N
1626201315.3,286047002.5,N
1626201335.2,286047000.7,N
1626201355.9,286047001.1,N
1626201375.7,286047002.8,N
1626201395.6,286047001.5,N
1626201415.4,286047002.6,N
1626201435.2,286046999.8,N
1626201455.1,286047001.4,N
1626201456.0,286047001.4,N
1626201475.8,286047004.0,N
1626201495.7,286047003.7,N
1626201515.5,286047004.4,N
1626201535.3,286047004.2,N
1626201555.2,286047001.4,N
1626201575.0,286047001.5,N
1626201575.9,286047001.5,N
1626201595.8,286047003.9,N
1626201615.6,286047004.0,N
1626201635.4,286047001.7,N
1626201655.3,286047002.5,N
1626201675.1,286047001.5,N
1626201695.9,286047004.1,N
1626201715.7,286047004.2,N
1626201735.5,286047003.9,N
1626201755.4,286047005.9,Y
1626201775.2,286046999.9,P
1626201795.0,286047000.9,N
1626201796.0,286047000.9,N
1626201815.8,286046999.7,N
1626201835.6,286047002.6,N
1626201855.5,286047000.5,N
1626201875.3,286046999.8,N
1626201895.1,286047000.4,N
1626201915.9,286047002.4,N
1626201935.7,286047001.6,N
1626201955.6,286047004.2,Y
1626201975.4,286047001.8,P
1626201995.2,286047001.8,P
1626202015.1,286046999.7,N
1626202016.0,286046999.7,N
1626202035.8,286047000.9,N
1626202055.7,286047000.2,N
1626202075.5,286047000.1,N
1626202095.3,286047000.5,N
1626202115.2,286047000.3,N
1626202135.0,286047000.3,N
1626202135.9,286047000.3,N
1626202155.7,286047000.8,N
1626202175.6,286047000.4,N
1626202195.4,286047000.4,N
1626202215.3,286047000.5,N
1626202235.1,286046998.5,N
1626202236.0,286046998.5,N
1626202255.8,286046998.9,N
1626202275.7,286047000.8,N
1626202295.5,286046998.5,N
1626202315.3,286047001.1,N
1626202335.2,286046998.1,N
1626202355.0,286047000.8,N
1626202355.9,286047000.8,N
1626202375.8,286047000.0,N
1626202395.6,286047000.2,N
1626202415.4,286047002.5,N
1626202435.3,286047002.7,N
1626202455.1,286047001.3,N
1626202475.8,286047004.1,Y
1626202495.7,286047001.9,P
1626202515.5,286047002.8,P
1626202535.4,286047001.0,N
1626202555.2,286047000.8,N
1626202575.0,286047000.8,N
1626202575.9,286047000.8,N
1626202595.8,286047001.2,N
1626202615.6,286046998.9,N
1626202635.4,286046998.2,N
1626202655.3,286047001.1,N
1626202675.1,286047000.6,N
1626202695.9,286046998.5,N
1626202715.7,286047000.6,N
1626202735.5,286047000.2,N
1626202755.4,286046999.8,N
1626202775.2,286047002.6,N
1626202795.0,286047001.7,N
1626202795.9,286047001.7,N
